Time,TemperatureF,DewpointF,PressureIn,WindDirection,WindDirectionDegrees,WindSpeedMPH,WindSpeedGustMPH,Humidity,HourlyPrecipIn,Conditions,Clouds,dailyrainin,SolarRadiationWatts/m^2,SoftwareType,DateUTC
2013-07-23 00:03:00,88.7,46.1,30.10,SSE,166,6.0,0.0,23,0.00,,,0.00,0,WeatherHawk,2013-07-23 05:03:00,
2013-07-23 00:08:00,88.6,46.0,30.10,South,187,8.0,0.0,23,0.00,,,0.00,1,WeatherHawk,2013-07-23 05:08:00,
2013-07-23 00:14:00,88.4,47.0,30.10,SSW,201,10.0,0.0,24,0.00,,,0.00,0,WeatherHawk,2013-07-23 05:14:00,
2013-07-23 00:19:00,88.4,46.9,30.11,SSE,151,7.0,0.0,24,0.00,,,0.00,0,WeatherHawk,2013-07-23 05:19:00,
2013-07-23 00:24:00,88.0,46.7,30.10,SSE,149,6.0,0.0,24,0.00,,,0.00,0,WeatherHawk,2013-07-23 05:24:00,
2013-07-23 00:29:00,88.1,47.8,30.12,SSW,199,13.0,0.0,25,0.00,,,0.00,0,WeatherHawk,2013-07-23 05:29:00,
2013-07-23 00:35:00,87.8,47.6,30.11,SE,140,9.0,0.0,25,0.00,,,0.00,0,WeatherHawk,2013-07-23 05:35:00,
2013-07-23 00:40:00,87.8,47.5,30.11,SSE,166,11.0,0.0,25,0.00,,,0.00,1,WeatherHawk,2013-07-23 05:40:00,
2013-07-23 00:45:00,87.7,47.5,30.11,South,176,10.0,-999.0,25,0.00,,,0.00,0,WeatherHawk,2013-07-23 05:45:00,
2013-07-23 00:50:00,87.4,48.2,30.11,South,169,3.0,-999.0,26,0.00,,,0.00,0,WeatherHawk,2013-07-23 05:50:00,
2013-07-23 00:55:00,87.2,48.1,30.11,South,186,8.0,-999.0,26,0.00,,,0.00,0,WeatherHawk,2013-07-23 05:55:00,
2013-07-23 01:00:00,87.0,48.9,30.12,South,178,6.0,-999.0,27,0.00,,,0.00,0,WeatherHawk,2013-07-23 06:00:00,
2013-07-23 01:05:00,87.0,49.0,30.12,South,189,8.0,-999.0,27,0.00,,,0.00,0,WeatherHawk,2013-07-23 06:05:00,
2013-07-23 01:10:00,86.9,48.8,30.11,South,189,5.0,-999.0,27,0.00,,,0.00,0,WeatherHawk,2013-07-23 06:10:00,
2013-07-23 01:15:00,86.8,48.8,30.10,SSW,207,7.0,0.0,27,0.00,,,0.00,0,WeatherHawk,2013-07-23 06:15:00,
2013-07-23 01:20:00,86.7,48.7,30.09,South,177,10.0,0.0,27,0.00,,,0.00,0,WeatherHawk,2013-07-23 06:20:00,
2013-07-23 01:25:00,86.5,49.5,30.11,SSW,205,10.0,0.0,28,0.00,,,0.00,0,WeatherHawk,2013-07-23 06:25:00,
2013-07-23 01:30:00,86.4,48.4,30.10,SSW,203,7.0,0.0,27,0.00,,,0.00,0,WeatherHawk,2013-07-23 06:30:00,
2013-07-23 01:35:00,86.4,49.4,30.11,SSE,152,11.0,-999.0,28,0.00,,,0.00,0,WeatherHawk,2013-07-23 06:35:00,
2013-07-23 01:40:00,86.2,49.3,30.11,South,175,11.0,-999.0,28,0.00,,,0.00,0,WeatherHawk,2013-07-23 06:40:00,
2013-07-23 01:45:00,86.1,49.1,30.11,South,175,3.0,-999.0,28,0.00,,,0.00,0,WeatherHawk,2013-07-23 06:45:00,
2013-07-23 01:50:00,86.1,49.2,30.11,SSW,200,6.0,0.0,28,0.00,,,0.00,0,WeatherHawk,2013-07-23 06:50:00,
2013-07-23 01:55:00,86.0,48.1,30.12,South,184,9.0,-999.0,27,0.00,,,0.00,0,WeatherHawk,2013-07-23 06:55:00,
2013-07-23 02:00:00,85.9,49.0,30.11,SSE,156,6.0,-999.0,28,0.00,,,0.00,0,WeatherHawk,2013-07-23 07:00:00,
2013-07-23 02:05:00,85.7,47.8,30.12,South,184,8.0,0.0,27,0.00,,,0.00,0,WeatherHawk,2013-07-23 07:05:00,
2013-07-23 02:10:00,85.7,48.8,30.11,South,179,6.0,0.0,28,0.00,,,0.00,0,WeatherHawk,2013-07-23 07:10:00,
2013-07-23 02:15:00,85.6,48.7,30.12,South,190,4.0,0.0,28,0.00,,,0.00,0,WeatherHawk,2013-07-23 07:15:00,
2013-07-23 02:20:00,85.5,48.6,30.12,SSW,205,6.0,-999.0,28,0.00,,,0.00,0,WeatherHawk,2013-07-23 07:20:00,
2013-07-23 02:25:00,85.4,48.5,30.12,SSE,164,5.0,0.0,28,0.00,,,0.00,0,WeatherHawk,2013-07-23 07:25:00,
2013-07-23 02:30:00,85.2,48.4,30.12,South,170,8.0,-999.0,28,0.00,,,0.00,0,WeatherHawk,2013-07-23 07:30:00,
2013-07-23 02:35:00,85.2,48.3,30.12,South,175,12.0,-999.0,28,0.00,,,0.00,0,WeatherHawk,2013-07-23 07:35:00,
2013-07-23 02:40:00,85.0,49.2,30.10,South,183,5.0,0.0,29,0.00,,,0.00,0,WeatherHawk,2013-07-23 07:40:00,
2013-07-23 02:45:00,84.8,49.0,30.12,SSW,193,8.0,0.0,29,0.00,,,0.00,1,WeatherHawk,2013-07-23 07:45:00,
2013-07-23 02:50:00,84.7,48.9,30.12,SSE,166,5.0,0.0,29,0.00,,,0.00,0,WeatherHawk,2013-07-23 07:50:00,
2013-07-23 02:55:00,84.6,49.7,30.11,SW,231,7.0,0.0,30,0.00,,,0.00,0,WeatherHawk,2013-07-23 07:55:00,
2013-07-23 03:00:00,84.4,49.6,30.11,WSW,240,12.0,0.0,30,0.00,,,0.00,0,WeatherHawk,2013-07-23 08:00:00,
2013-07-23 03:05:00,84.2,50.3,30.12,South,172,7.0,0.0,31,0.00,,,0.00,1,WeatherHawk,2013-07-23 08:05:00,
2013-07-23 03:10:00,84.2,50.2,30.11,South,176,5.0,0.0,31,0.00,,,0.00,0,WeatherHawk,2013-07-23 08:10:00,
2013-07-23 03:15:00,84.1,51.0,30.11,South,181,5.0,0.0,32,0.00,,,0.00,0,WeatherHawk,2013-07-23 08:15:00,
2013-07-23 03:20:00,83.8,50.8,30.12,SSE,152,7.0,-999.0,32,0.00,,,0.00,1,WeatherHawk,2013-07-23 08:20:00,
2013-07-23 03:25:00,83.8,50.8,30.13,South,186,9.0,0.0,32,0.00,,,0.00,1,WeatherHawk,2013-07-23 08:25:00,
2013-07-23 03:30:00,83.6,51.4,30.12,South,191,6.0,0.0,33,0.00,,,0.00,0,WeatherHawk,2013-07-23 08:30:00,
2013-07-23 03:35:00,83.6,51.4,30.12,South,178,7.0,0.0,33,0.00,,,0.00,1,WeatherHawk,2013-07-23 08:35:00,
2013-07-23 03:40:00,83.4,52.0,30.10,SSW,195,9.0,0.0,34,0.00,,,0.00,0,WeatherHawk,2013-07-23 08:40:00,
2013-07-23 03:45:00,83.2,51.9,30.11,South,185,7.0,-999.0,34,0.00,,,0.00,0,WeatherHawk,2013-07-23 08:45:00,
2013-07-23 03:50:00,83.1,52.6,30.11,South,180,5.0,0.0,35,0.00,,,0.00,0,WeatherHawk,2013-07-23 08:50:00,
2013-07-23 03:55:00,82.9,52.4,30.12,South,182,4.0,0.0,35,0.00,,,0.00,1,WeatherHawk,2013-07-23 08:55:00,
2013-07-23 04:00:00,82.8,53.1,30.11,South,174,6.0,-999.0,36,0.00,,,0.00,0,WeatherHawk,2013-07-23 09:00:00,
2013-07-23 04:05:00,82.7,53.0,30.12,South,177,7.0,0.0,36,0.00,,,0.00,0,WeatherHawk,2013-07-23 09:05:00,
2013-07-23 04:10:00,82.8,53.1,30.13,SSE,159,7.0,-999.0,36,0.00,,,0.00,1,WeatherHawk,2013-07-23 09:10:00,
2013-07-23 04:15:00,82.5,53.5,30.13,SSW,199,1.0,0.0,37,0.00,,,0.00,0,WeatherHawk,2013-07-23 09:15:00,
2013-07-23 04:20:00,82.3,54.2,30.12,SSE,161,4.0,0.0,38,0.00,,,0.00,0,WeatherHawk,2013-07-23 09:20:00,
2013-07-23 04:25:00,82.3,54.1,30.13,South,174,2.0,0.0,38,0.00,,,0.00,0,WeatherHawk,2013-07-23 09:25:00,
2013-07-23 04:30:00,82.3,54.8,30.13,South,188,4.0,-999.0,39,0.00,,,0.00,0,WeatherHawk,2013-07-23 09:30:00,
2013-07-23 04:35:00,82.0,54.6,30.13,SSE,157,8.0,0.0,39,0.00,,,0.00,0,WeatherHawk,2013-07-23 09:35:00,
2013-07-23 04:40:00,81.9,55.2,30.12,South,179,4.0,0.0,40,0.00,,,0.00,1,WeatherHawk,2013-07-23 09:40:00,
2013-07-23 04:45:00,81.7,55.0,30.12,SE,141,7.0,-999.0,40,0.00,,,0.00,1,WeatherHawk,2013-07-23 09:45:00,
2013-07-23 04:50:00,81.7,55.7,30.11,SSE,159,3.0,0.0,41,0.00,,,0.00,0,WeatherHawk,2013-07-23 09:50:00,
2013-07-23 04:55:00,81.5,56.2,30.11,SSW,195,5.0,-999.0,42,0.00,,,0.00,0,WeatherHawk,2013-07-23 09:55:00,
2013-07-23 05:00:00,81.6,56.2,30.12,South,185,5.0,0.0,42,0.00,,,0.00,0,WeatherHawk,2013-07-23 10:00:00,
2013-07-23 05:05:00,81.4,56.7,30.12,South,182,4.0,0.0,43,0.00,,,0.00,0,WeatherHawk,2013-07-23 10:05:00,
2013-07-23 05:10:00,81.3,56.7,30.13,South,188,2.0,0.0,43,0.00,,,0.00,1,WeatherHawk,2013-07-23 10:10:00,
2013-07-23 05:15:00,81.2,56.6,30.13,SSE,155,6.0,0.0,43,0.00,,,0.00,1,WeatherHawk,2013-07-23 10:15:00,
2013-07-23 05:20:00,81.2,57.2,30.12,SSW,202,4.0,0.0,44,0.00,,,0.00,1,WeatherHawk,2013-07-23 10:20:00,
2013-07-23 05:25:00,81.2,57.2,30.12,South,190,4.0,0.0,44,0.00,,,0.00,0,WeatherHawk,2013-07-23 10:25:00,
2013-07-23 05:30:00,81.2,57.8,30.13,South,190,9.0,0.0,45,0.00,,,0.00,0,WeatherHawk,2013-07-23 10:30:00,
2013-07-23 05:35:00,81.1,57.7,30.14,South,176,7.0,0.0,45,0.00,,,0.00,0,WeatherHawk,2013-07-23 10:35:00,
2013-07-23 05:40:00,80.9,58.1,30.14,SSE,154,8.0,-999.0,46,0.00,,,0.00,0,WeatherHawk,2013-07-23 10:40:00,
2013-07-23 05:45:00,80.8,58.1,30.14,SSE,152,7.0,-999.0,46,0.00,,,0.00,1,WeatherHawk,2013-07-23 10:45:00,
2013-07-23 05:50:00,81.0,58.2,30.13,SSE,153,6.0,0.0,46,0.00,,,0.00,0,WeatherHawk,2013-07-23 10:50:00,
2013-07-23 05:55:00,80.7,58.6,30.14,SSE,149,4.0,0.0,47,0.00,,,0.00,0,WeatherHawk,2013-07-23 10:55:00,
2013-07-23 06:00:00,80.8,58.6,30.14,South,169,2.0,0.0,47,0.00,,,0.00,0,WeatherHawk,2013-07-23 11:00:00,
2013-07-23 06:05:00,80.7,59.2,30.15,SSE,161,6.0,0.0,48,0.00,,,0.00,0,WeatherHawk,2013-07-23 11:05:00,
2013-07-23 06:10:00,80.7,59.1,30.14,South,182,8.0,0.0,48,0.00,,,0.00,1,WeatherHawk,2013-07-23 11:10:00,
2013-07-23 06:15:00,80.7,59.1,30.15,South,188,5.0,-999.0,48,0.00,,,0.00,0,WeatherHawk,2013-07-23 11:15:00,
2013-07-23 06:20:00,80.6,59.7,30.14,South,189,5.0,0.0,49,0.00,,,0.00,0,WeatherHawk,2013-07-23 11:20:00,
2013-07-23 06:25:00,80.7,59.8,30.15,South,187,5.0,0.0,49,0.00,,,0.00,3,WeatherHawk,2013-07-23 11:25:00,
2013-07-23 06:30:00,80.8,59.8,30.15,SSE,161,6.0,0.0,49,0.00,,,0.00,2,WeatherHawk,2013-07-23 11:30:00,
2013-07-23 06:35:00,80.7,59.7,30.14,SSW,208,6.0,-999.0,49,0.00,,,0.00,4,WeatherHawk,2013-07-23 11:35:00,
2013-07-23 06:40:00,80.8,59.9,30.14,South,173,6.0,-999.0,49,0.00,,,0.00,7,WeatherHawk,2013-07-23 11:40:00,
2013-07-23 06:45:00,80.6,59.6,30.14,SSE,163,5.0,-999.0,49,0.00,,,0.00,9,WeatherHawk,2013-07-23 11:45:00,
2013-07-23 06:50:00,80.7,59.7,30.13,SSW,196,4.0,0.0,49,0.00,,,0.00,14,WeatherHawk,2013-07-23 11:50:00,
2013-07-23 06:55:00,80.8,59.8,30.12,SSW,200,5.0,-999.0,49,0.00,,,0.00,22,WeatherHawk,2013-07-23 11:55:00,
2013-07-23 07:00:00,80.7,59.8,30.13,South,182,6.0,0.0,49,0.00,,,0.00,23,WeatherHawk,2013-07-23 12:00:00,
2013-07-23 07:05:00,80.9,59.9,30.13,SSW,195,7.0,0.0,49,0.00,,,0.00,25,WeatherHawk,2013-07-23 12:05:00,
2013-07-23 07:10:00,80.9,59.9,30.13,SSW,201,4.0,0.0,49,0.00,,,0.00,27,WeatherHawk,2013-07-23 12:10:00,
2013-07-23 07:15:00,81.0,59.4,30.13,SSE,161,5.0,-999.0,48,0.00,,,0.00,31,WeatherHawk,2013-07-23 12:15:00,
2013-07-23 07:20:00,81.0,59.5,30.13,SSE,162,4.0,0.0,48,0.00,,,0.00,39,WeatherHawk,2013-07-23 12:20:00,
2013-07-23 07:25:00,81.3,59.2,30.14,SSW,193,1.0,0.0,47,0.00,,,0.00,53,WeatherHawk,2013-07-23 12:25:00,
2013-07-23 07:30:00,81.3,59.1,30.14,SSW,194,1.0,0.0,47,0.00,,,0.00,64,WeatherHawk,2013-07-23 12:30:00,
2013-07-23 07:35:00,81.5,58.7,30.15,SE,140,2.0,0.0,46,0.00,,,0.00,77,WeatherHawk,2013-07-23 12:35:00,
2013-07-23 07:40:00,81.8,58.3,30.15,SSE,157,2.0,0.0,45,0.00,,,0.00,116,WeatherHawk,2013-07-23 12:40:00,
2013-07-23 07:45:00,81.8,57.7,30.14,South,174,4.0,-999.0,44,0.00,,,0.00,125,WeatherHawk,2013-07-23 12:45:00,
2013-07-23 07:50:00,82.5,58.3,30.14,SSE,159,3.0,-999.0,44,0.00,,,0.00,142,WeatherHawk,2013-07-23 12:50:00,
2013-07-23 07:55:00,82.5,57.1,30.15,SW,228,3.0,-999.0,42,0.00,,,0.00,157,WeatherHawk,2013-07-23 12:55:00,
2013-07-23 08:00:00,82.3,56.2,30.15,SSE,168,4.0,0.0,41,0.00,,,0.00,169,WeatherHawk,2013-07-23 13:00:00,
2013-07-23 08:05:00,82.4,56.3,30.16,South,170,5.0,0.0,41,0.00,,,0.00,186,WeatherHawk,2013-07-23 13:05:00,
2013-07-23 08:10:00,82.5,55.7,30.15,South,175,6.0,0.0,40,0.00,,,0.00,183,WeatherHawk,2013-07-23 13:10:00,
2013-07-23 08:15:00,83.1,56.2,30.15,South,173,6.0,0.0,40,0.00,,,0.00,218,WeatherHawk,2013-07-23 13:15:00,
2013-07-23 08:20:00,82.7,55.2,30.14,SSW,194,10.0,-999.0,39,0.00,,,0.00,232,WeatherHawk,2013-07-23 13:20:00,
2013-07-23 08:25:00,83.2,55.0,30.15,SSW,213,7.0,0.0,38,0.00,,,0.00,249,WeatherHawk,2013-07-23 13:25:00,
2013-07-23 08:30:00,83.5,55.2,30.15,SSW,196,5.0,0.0,38,0.00,,,0.00,265,WeatherHawk,2013-07-23 13:30:00,
2013-07-23 08:35:00,84.9,55.7,30.16,West,260,5.0,0.0,37,0.00,,,0.00,179,WeatherHawk,2013-07-23 13:35:00,
2013-07-23 08:40:00,84.8,54.8,30.15,South,176,5.0,0.0,36,0.00,,,0.00,298,WeatherHawk,2013-07-23 13:40:00,
2013-07-23 08:45:00,84.4,52.9,30.16,SSW,202,8.0,0.0,34,0.00,,,0.00,161,WeatherHawk,2013-07-23 13:45:00,
2013-07-23 08:50:00,85.2,53.7,30.15,South,181,6.0,0.0,34,0.00,,,0.00,338,WeatherHawk,2013-07-23 13:50:00,
2013-07-23 08:56:00,85.5,53.9,30.17,South,189,10.0,0.0,34,0.00,,,0.00,347,WeatherHawk,2013-07-23 13:56:00,
2013-07-23 09:01:00,84.3,51.2,30.16,SSW,206,13.0,0.0,32,0.00,,,0.00,365,WeatherHawk,2013-07-23 14:01:00,
2013-07-23 09:06:00,84.4,52.1,30.14,SSW,211,14.0,0.0,33,0.00,,,0.00,374,WeatherHawk,2013-07-23 14:06:00,
2013-07-23 09:12:00,84.7,52.4,30.15,SW,224,11.0,0.0,33,0.00,,,0.00,395,WeatherHawk,2013-07-23 14:12:00,
2013-07-23 09:17:00,85.7,53.2,30.15,SSE,162,5.0,0.0,33,0.00,,,0.00,278,WeatherHawk,2013-07-23 14:17:00,
2013-07-23 09:22:00,85.1,52.7,30.15,South,188,9.0,0.0,33,0.00,,,0.00,430,WeatherHawk,2013-07-23 14:22:00,
2013-07-23 09:28:00,84.4,52.1,30.14,South,191,13.0,0.0,33,0.00,,,0.00,444,WeatherHawk,2013-07-23 14:28:00,
2013-07-23 09:34:00,85.1,51.9,30.16,South,183,10.0,0.0,32,0.00,,,0.00,466,WeatherHawk,2013-07-23 14:34:00,
2013-07-23 09:39:00,85.2,51.1,30.14,SSW,204,11.0,0.0,31,0.00,,,0.00,483,WeatherHawk,2013-07-23 14:39:00,
2013-07-23 09:44:00,86.0,50.9,30.15,SSE,154,8.0,0.0,30,0.00,,,0.00,497,WeatherHawk,2013-07-23 14:44:00,
2013-07-23 09:49:00,85.6,49.6,30.15,SSW,201,12.0,0.0,29,0.00,,,0.00,510,WeatherHawk,2013-07-23 14:49:00,
2013-07-23 09:55:00,86.8,50.7,30.15,South,176,9.0,0.0,29,0.00,,,0.00,520,WeatherHawk,2013-07-23 14:55:00,
2013-07-23 10:00:00,88.4,51.1,30.15,South,189,5.0,-999.0,28,0.00,,,0.00,541,WeatherHawk,2013-07-23 15:00:00,
2013-07-23 10:05:00,88.0,48.8,30.16,NNE,19,6.0,0.0,26,0.00,,,0.00,563,WeatherHawk,2013-07-23 15:05:00,
2013-07-23 10:10:00,88.3,50.0,30.14,ESE,110,4.0,0.0,27,0.00,,,0.00,585,WeatherHawk,2013-07-23 15:10:00,
2013-07-23 10:15:00,87.6,48.5,30.14,South,173,8.0,0.0,26,0.00,,,0.00,588,WeatherHawk,2013-07-23 15:15:00,
2013-07-23 10:20:00,88.0,46.6,30.14,SSW,207,8.0,0.0,24,0.00,,,0.00,608,WeatherHawk,2013-07-23 15:20:00,
2013-07-23 10:25:00,88.7,46.1,30.14,SE,137,5.0,0.0,23,0.00,,,0.00,615,WeatherHawk,2013-07-23 15:25:00,
2013-07-23 10:30:00,88.8,46.2,30.14,SSE,165,5.0,0.0,23,0.00,,,0.00,631,WeatherHawk,2013-07-23 15:30:00,
2013-07-23 10:35:00,88.4,45.9,30.14,SSW,196,6.0,0.0,23,0.00,,,0.00,641,WeatherHawk,2013-07-23 15:35:00,
2013-07-23 10:40:00,89.2,46.5,30.15,South,190,5.0,0.0,23,0.00,,,0.00,656,WeatherHawk,2013-07-23 15:40:00,
2013-07-23 10:45:00,89.6,45.7,30.14,SSW,210,7.0,0.0,22,0.00,,,0.00,668,WeatherHawk,2013-07-23 15:45:00,
2013-07-23 10:50:00,89.8,43.4,30.15,WSW,238,5.0,0.0,20,0.00,,,0.00,685,WeatherHawk,2013-07-23 15:50:00,
2013-07-23 10:56:00,89.3,42.9,30.14,SE,145,7.0,0.0,20,0.00,,,0.00,702,WeatherHawk,2013-07-23 15:56:00,
2013-07-23 11:01:00,88.9,43.9,30.14,South,180,7.0,0.0,21,0.00,,,0.00,736,WeatherHawk,2013-07-23 16:01:00,
2013-07-23 11:06:00,88.3,43.4,30.12,SSW,202,10.0,0.0,21,0.00,,,0.00,734,WeatherHawk,2013-07-23 16:06:00,
2013-07-23 11:11:00,89.7,43.3,30.15,SSE,163,9.0,0.0,20,0.00,,,0.00,733,WeatherHawk,2013-07-23 16:11:00,
2013-07-23 11:17:00,91.2,41.7,30.13,SSW,207,2.0,0.0,18,0.00,,,0.00,752,WeatherHawk,2013-07-23 16:17:00,
2013-07-23 11:22:00,89.1,40.1,30.14,South,169,5.0,0.0,18,0.00,,,0.00,766,WeatherHawk,2013-07-23 16:22:00,
2013-07-23 11:27:00,93.0,41.7,30.12,SSE,147,4.0,0.0,17,0.00,,,0.00,780,WeatherHawk,2013-07-23 16:27:00,
2013-07-23 11:32:00,90.4,39.6,30.13,SSE,163,4.0,0.0,17,0.00,,,0.00,792,WeatherHawk,2013-07-23 16:32:00,
2013-07-23 11:37:00,90.5,41.2,30.11,South,191,8.0,0.0,18,0.00,,,0.00,809,WeatherHawk,2013-07-23 16:37:00,
2013-07-23 11:42:00,90.2,40.9,30.13,SE,127,6.0,0.0,18,0.00,,,0.00,822,WeatherHawk,2013-07-23 16:42:00,
2013-07-23 11:47:00,90.7,41.3,30.13,SSE,159,11.0,0.0,18,0.00,,,0.00,595,WeatherHawk,2013-07-23 16:47:00,
2013-07-23 11:52:00,89.9,37.6,30.13,SE,145,6.0,0.0,16,0.00,,,0.00,876,WeatherHawk,2013-07-23 16:52:00,
2013-07-23 11:57:00,92.5,41.3,30.12,West,260,3.0,0.0,17,0.00,,,0.00,899,WeatherHawk,2013-07-23 16:57:00,
2013-07-23 12:02:00,90.4,41.1,30.11,SSW,201,5.0,0.0,18,0.00,,,0.00,913,WeatherHawk,2013-07-23 17:02:00,
2013-07-23 12:07:00,92.9,41.6,30.13,SSW,203,6.0,0.0,17,0.00,,,0.00,858,WeatherHawk,2013-07-23 17:07:00,
2013-07-23 12:12:00,94.5,41.3,30.11,SSW,213,5.0,0.0,16,0.00,,,0.00,888,WeatherHawk,2013-07-23 17:12:00,
2013-07-23 12:13:00,94.5,41.3,30.11,SSW,213,5.0,0.0,16,0.00,,,0.00,888,WeatherHawk,2013-07-23 17:13:00,
2013-07-23 12:18:00,91.3,37.2,30.10,South,191,6.0,0.0,15,0.00,,,0.00,905,WeatherHawk,2013-07-23 17:18:00,
2013-07-23 12:23:00,91.8,39.1,30.11,SE,143,6.0,0.0,16,0.00,,,0.00,788,WeatherHawk,2013-07-23 17:23:00,
2013-07-23 12:28:00,93.0,40.2,30.10,South,183,5.0,0.0,16,0.00,,,0.00,937,WeatherHawk,2013-07-23 17:28:00,
2013-07-23 12:33:00,94.5,39.7,30.09,South,184,7.0,0.0,15,0.00,,,0.00,841,WeatherHawk,2013-07-23 17:33:00,
2013-07-23 12:38:00,92.8,39.9,30.11,SSW,211,10.0,0.0,16,0.00,,,0.00,896,WeatherHawk,2013-07-23 17:38:00,
2013-07-23 12:44:00,93.1,36.8,30.09,SE,144,6.0,0.0,14,0.00,,,0.00,924,WeatherHawk,2013-07-23 17:44:00,
2013-07-23 12:49:00,93.4,38.8,30.08,SSW,197,7.0,0.0,15,0.00,,,0.00,963,WeatherHawk,2013-07-23 17:49:00,
2013-07-23 12:55:00,95.8,38.9,30.09,South,191,8.0,0.0,14,0.00,,,0.00,964,WeatherHawk,2013-07-23 17:55:00,
2013-07-23 13:01:00,92.3,37.9,30.10,SSW,205,4.0,0.0,15,0.00,,,0.00,958,WeatherHawk,2013-07-23 18:01:00,
2013-07-23 13:06:00,93.0,36.7,30.09,SE,142,6.0,0.0,14,0.00,,,0.00,288,WeatherHawk,2013-07-23 18:06:00,
2013-07-23 13:11:00,92.5,38.1,30.10,SSW,194,11.0,0.0,15,0.00,,,0.00,961,WeatherHawk,2013-07-23 18:11:00,
2013-07-23 13:17:00,93.4,37.1,30.09,SSW,198,10.0,0.0,14,0.00,,,0.00,992,WeatherHawk,2013-07-23 18:17:00,
2013-07-23 13:22:00,94.1,37.6,30.08,South,181,6.0,0.0,14,0.00,,,0.00,967,WeatherHawk,2013-07-23 18:22:00,
2013-07-23 13:29:00,93.2,38.6,30.08,South,185,6.0,0.0,15,0.00,,,0.00,928,WeatherHawk,2013-07-23 18:29:00,
2013-07-23 13:34:00,94.7,38.1,30.08,SW,214,6.0,0.0,14,0.00,,,0.00,978,WeatherHawk,2013-07-23 18:34:00,
2013-07-23 13:39:00,92.2,36.1,30.07,South,188,10.0,0.0,14,0.00,,,0.00,934,WeatherHawk,2013-07-23 18:39:00,
2013-07-23 13:45:00,95.0,36.4,30.08,SSE,160,5.0,0.0,13,0.00,,,0.00,940,WeatherHawk,2013-07-23 18:45:00,
2013-07-23 13:50:00,94.6,36.1,30.08,South,170,5.0,0.0,13,0.00,,,0.00,953,WeatherHawk,2013-07-23 18:50:00,
2013-07-23 13:55:00,97.4,34.1,30.07,SE,134,8.0,0.0,11,0.00,,,0.00,943,WeatherHawk,2013-07-23 18:55:00,
2013-07-23 14:00:00,94.3,33.9,30.07,South,169,10.0,0.0,12,0.00,,,0.00,950,WeatherHawk,2013-07-23 19:00:00,
2013-07-23 14:05:00,95.8,37.1,30.06,South,169,8.0,0.0,13,0.00,,,0.00,953,WeatherHawk,2013-07-23 19:05:00,
2013-07-23 14:10:00,95.2,36.6,30.06,SSE,156,5.0,0.0,13,0.00,,,0.00,969,WeatherHawk,2013-07-23 19:10:00,
2013-07-23 14:16:00,96.8,35.8,30.05,South,181,8.0,0.0,12,0.00,,,0.00,971,WeatherHawk,2013-07-23 19:16:00,
2013-07-23 14:21:00,94.2,35.8,30.07,South,175,7.0,0.0,13,0.00,,,0.00,361,WeatherHawk,2013-07-23 19:21:00,
2013-07-23 14:26:00,98.6,39.2,30.07,SSW,210,7.0,0.0,13,0.00,,,0.00,911,WeatherHawk,2013-07-23 19:26:00,
2013-07-23 14:31:00,95.6,34.9,30.07,ESE,117,8.0,0.0,12,0.00,,,0.00,985,WeatherHawk,2013-07-23 19:31:00,
2013-07-23 14:36:00,98.2,40.8,30.06,South,189,8.0,0.0,14,0.00,,,0.00,866,WeatherHawk,2013-07-23 19:36:00,
2013-07-23 14:41:00,96.9,35.9,30.05,SW,215,12.0,0.0,12,0.00,,,0.00,1007,WeatherHawk,2013-07-23 19:41:00,
2013-07-23 14:47:00,95.9,35.1,30.05,SSW,210,8.0,0.0,12,0.00,,,0.00,503,WeatherHawk,2013-07-23 19:47:00,
2013-07-23 14:52:00,96.0,37.2,30.05,SSW,196,6.0,0.0,13,0.00,,,0.00,260,WeatherHawk,2013-07-23 19:52:00,
2013-07-23 14:57:00,98.1,36.8,30.06,SE,145,6.0,0.0,12,0.00,,,0.00,988,WeatherHawk,2013-07-23 19:57:00,
2013-07-23 15:02:00,96.2,35.3,30.05,SSE,159,11.0,0.0,12,0.00,,,0.00,958,WeatherHawk,2013-07-23 20:02:00,
2013-07-23 15:07:00,96.3,35.4,30.05,South,182,8.0,0.0,12,0.00,,,0.00,926,WeatherHawk,2013-07-23 20:07:00,
2013-07-23 15:12:00,95.5,36.8,30.04,SW,218,11.0,0.0,13,0.00,,,0.00,935,WeatherHawk,2013-07-23 20:12:00,
2013-07-23 15:18:00,97.1,36.0,30.05,SSW,198,11.0,0.0,12,0.00,,,0.00,415,WeatherHawk,2013-07-23 20:18:00,
2013-07-23 15:23:00,97.3,36.2,30.04,South,185,11.0,0.0,12,0.00,,,0.00,910,WeatherHawk,2013-07-23 20:23:00,
2013-07-23 15:28:00,99.2,35.4,30.03,SE,125,7.0,0.0,11,0.00,,,0.00,895,WeatherHawk,2013-07-23 20:28:00,
2013-07-23 15:34:00,97.2,33.9,30.01,SSE,160,11.0,0.0,11,0.00,,,0.00,920,WeatherHawk,2013-07-23 20:34:00,
2013-07-23 15:40:00,95.6,32.7,30.03,SSW,207,15.0,0.0,11,0.00,,,0.00,909,WeatherHawk,2013-07-23 20:40:00,
2013-07-23 15:45:00,96.6,35.6,30.01,South,187,8.0,-999.0,12,0.00,,,0.00,530,WeatherHawk,2013-07-23 20:45:00,
2013-07-23 15:50:00,97.7,34.3,30.01,SSW,209,12.0,0.0,11,0.00,,,0.00,824,WeatherHawk,2013-07-23 20:50:00,
2013-07-23 15:55:00,98.5,37.1,30.01,South,181,6.0,0.0,12,0.00,,,0.00,835,WeatherHawk,2013-07-23 20:55:00,
2013-07-23 16:00:00,96.0,35.2,30.02,SW,223,18.0,-999.0,12,0.00,,,0.00,804,WeatherHawk,2013-07-23 21:00:00,
2013-07-23 16:05:00,96.9,33.6,30.01,SSW,200,11.0,0.0,11,0.00,,,0.00,802,WeatherHawk,2013-07-23 21:05:00,
2013-07-23 16:10:00,97.1,33.8,30.02,SSW,202,15.0,-999.0,11,0.00,,,0.00,822,WeatherHawk,2013-07-23 21:10:00,
2013-07-23 16:15:00,97.9,34.5,30.02,SSW,207,12.0,0.0,11,0.00,,,0.00,628,WeatherHawk,2013-07-23 21:15:00,
2013-07-23 16:20:00,98.8,35.1,30.01,SSW,208,8.0,0.0,11,0.00,,,0.00,825,WeatherHawk,2013-07-23 21:20:00,
2013-07-23 16:25:00,97.9,34.5,30.00,SE,140,10.0,0.0,11,0.00,,,0.00,763,WeatherHawk,2013-07-23 21:25:00,
2013-07-23 16:30:00,96.5,33.4,30.01,SSE,166,8.0,0.0,11,0.00,,,0.00,212,WeatherHawk,2013-07-23 21:30:00,
2013-07-23 16:35:00,98.1,34.6,30.01,SSW,193,12.0,-999.0,11,0.00,,,0.00,758,WeatherHawk,2013-07-23 21:35:00,
2013-07-23 16:40:00,97.6,36.4,30.01,ESE,122,10.0,-999.0,12,0.00,,,0.00,785,WeatherHawk,2013-07-23 21:40:00,
2013-07-23 16:45:00,96.9,33.7,30.01,SSW,212,11.0,0.0,11,0.00,,,0.00,176,WeatherHawk,2013-07-23 21:45:00,
2013-07-23 16:50:00,96.0,33.0,30.02,South,187,10.0,0.0,11,0.00,,,0.00,142,WeatherHawk,2013-07-23 21:50:00,
2013-07-23 16:55:00,96.4,35.5,30.02,SSW,212,10.0,-999.0,12,0.00,,,0.00,496,WeatherHawk,2013-07-23 21:55:00,
2013-07-23 17:00:00,97.3,31.6,30.03,South,182,13.0,-999.0,10,0.00,,,0.00,712,WeatherHawk,2013-07-23 22:00:00,
2013-07-23 17:05:00,97.6,34.2,30.01,SSW,213,11.0,0.0,11,0.00,,,0.00,672,WeatherHawk,2013-07-23 22:05:00,
2013-07-23 17:10:00,98.2,29.7,30.00,SSW,205,12.0,0.0,9,0.00,,,0.00,628,WeatherHawk,2013-07-23 22:10:00,
2013-07-23 17:15:00,97.4,34.1,30.01,SW,235,15.0,-999.0,11,0.00,,,0.00,604,WeatherHawk,2013-07-23 22:15:00,
2013-07-23 17:20:00,97.9,32.0,30.00,SSW,204,7.0,0.0,10,0.00,,,0.00,595,WeatherHawk,2013-07-23 22:20:00,
2013-07-23 17:25:00,97.9,29.4,30.00,South,171,11.0,-999.0,9,0.00,,,0.00,573,WeatherHawk,2013-07-23 22:25:00,
2013-07-23 17:30:00,98.0,32.1,30.02,South,184,8.0,0.0,10,0.00,,,0.00,544,WeatherHawk,2013-07-23 22:30:00,
2013-07-23 17:35:00,98.6,32.6,30.01,WSW,258,10.0,0.0,10,0.00,,,0.00,535,WeatherHawk,2013-07-23 22:35:00,
2013-07-23 17:40:00,99.4,30.6,30.00,SW,224,9.0,-999.0,9,0.00,,,0.00,521,WeatherHawk,2013-07-23 22:40:00,
2013-07-23 17:45:00,98.3,26.9,30.00,South,176,12.0,-999.0,8,0.00,,,0.00,496,WeatherHawk,2013-07-23 22:45:00,
2013-07-23 17:50:00,98.5,29.9,30.01,South,177,10.0,-999.0,9,0.00,,,0.00,496,WeatherHawk,2013-07-23 22:50:00,
2013-07-23 17:55:00,98.2,29.7,30.00,SSW,202,13.0,0.0,9,0.00,,,0.00,469,WeatherHawk,2013-07-23 22:55:00,
2013-07-23 18:00:00,98.6,32.6,29.99,South,182,8.0,0.0,10,0.00,,,0.00,464,WeatherHawk,2013-07-23 23:00:00,
2013-07-23 18:05:00,97.8,26.5,29.99,SSW,207,12.0,-999.0,8,0.00,,,0.00,444,WeatherHawk,2013-07-23 23:05:00,
2013-07-23 18:10:00,98.0,29.6,29.99,WSW,243,10.0,0.0,9,0.00,,,0.00,432,WeatherHawk,2013-07-23 23:10:00,
2013-07-23 18:15:00,98.2,29.7,29.97,South,184,11.0,0.0,9,0.00,,,0.00,418,WeatherHawk,2013-07-23 23:15:00,
2013-07-23 18:20:00,98.0,26.7,29.98,South,175,9.0,-999.0,8,0.00,,,0.00,396,WeatherHawk,2013-07-23 23:20:00,
2013-07-23 18:25:00,97.1,26.0,29.99,SSW,202,13.0,0.0,8,0.00,,,0.00,380,WeatherHawk,2013-07-23 23:25:00,
2013-07-23 18:30:00,97.4,26.2,29.99,SSE,168,14.0,0.0,8,0.00,,,0.00,359,WeatherHawk,2013-07-23 23:30:00,
2013-07-23 18:35:00,96.9,25.9,29.98,SSW,197,14.0,0.0,8,0.00,,,0.00,344,WeatherHawk,2013-07-23 23:35:00,
2013-07-23 18:40:00,97.1,22.8,29.96,South,181,11.0,0.0,7,0.00,,,0.00,326,WeatherHawk,2013-07-23 23:40:00,
2013-07-23 18:45:00,96.9,25.9,29.96,SSW,194,15.0,0.0,8,0.00,,,0.00,308,WeatherHawk,2013-07-23 23:45:00,
2013-07-23 18:50:00,97.6,23.2,29.97,SSW,204,7.0,0.0,7,0.00,,,0.00,285,WeatherHawk,2013-07-23 23:50:00,
2013-07-23 18:55:00,97.4,29.1,29.97,SW,217,10.0,0.0,9,0.00,,,0.00,275,WeatherHawk,2013-07-23 23:55:00,
2013-07-23 19:01:00,96.7,28.6,29.95,South,191,10.0,0.0,9,0.00,,,0.00,251,WeatherHawk,2013-07-24 00:01:00,
2013-07-23 19:06:00,97.2,26.0,29.98,South,177,10.0,0.0,8,0.00,,,0.00,224,WeatherHawk,2013-07-24 00:06:00,
2013-07-23 19:12:00,96.3,25.5,29.97,SSW,196,14.0,0.0,8,0.00,,,0.00,219,WeatherHawk,2013-07-24 00:12:00,
2013-07-23 19:17:00,97.3,29.0,29.98,SSE,151,4.0,0.0,9,0.00,,,0.00,202,WeatherHawk,2013-07-24 00:17:00,
2013-07-23 19:22:00,96.6,22.4,29.98,South,190,10.0,0.0,7,0.00,,,0.00,183,WeatherHawk,2013-07-24 00:22:00,
2013-07-23 19:27:00,96.3,22.3,29.98,South,180,7.0,0.0,7,0.00,,,0.00,167,WeatherHawk,2013-07-24 00:27:00,
2013-07-23 19:33:00,96.3,25.4,29.98,South,169,7.0,0.0,8,0.00,,,0.00,148,WeatherHawk,2013-07-24 00:33:00,
2013-07-23 19:38:00,96.6,22.5,29.98,SSW,200,5.0,0.0,7,0.00,,,0.00,130,WeatherHawk,2013-07-24 00:38:00,
2013-07-23 19:43:00,95.8,25.1,29.98,South,191,11.0,0.0,8,0.00,,,0.00,98,WeatherHawk,2013-07-24 00:43:00,
2013-07-23 19:49:00,95.6,24.9,29.98,South,179,8.0,0.0,8,0.00,,,0.00,83,WeatherHawk,2013-07-24 00:49:00,
2013-07-23 19:54:00,96.1,22.1,29.97,SSW,206,5.0,0.0,7,0.00,,,0.00,81,WeatherHawk,2013-07-24 00:54:00,
2013-07-23 19:59:00,95.6,21.7,29.99,SSW,208,8.0,0.0,7,0.00,,,0.00,70,WeatherHawk,2013-07-24 00:59:00,
2013-07-23 20:04:00,95.5,24.8,29.99,South,185,10.0,0.0,8,0.00,,,0.00,56,WeatherHawk,2013-07-24 01:04:00,
2013-07-23 20:09:00,95.2,24.6,30.00,SE,137,7.0,0.0,8,0.00,,,0.00,43,WeatherHawk,2013-07-24 01:09:00,
2013-07-23 20:14:00,95.1,24.6,29.99,SSE,156,4.0,0.0,8,0.00,,,0.00,31,WeatherHawk,2013-07-24 01:14:00,
2013-07-23 20:20:00,94.5,27.0,30.00,South,181,5.0,0.0,9,0.00,,,0.00,20,WeatherHawk,2013-07-24 01:20:00,
2013-07-23 20:25:00,94.2,29.3,29.99,SSE,151,6.0,-999.0,10,0.00,,,0.00,12,WeatherHawk,2013-07-24 01:25:00,
2013-07-23 20:30:00,94.0,29.1,30.00,SSW,192,10.0,0.0,10,0.00,,,0.00,7,WeatherHawk,2013-07-24 01:30:00,
2013-07-23 20:36:00,93.8,26.4,30.00,SSE,155,7.0,0.0,9,0.00,,,0.00,5,WeatherHawk,2013-07-24 01:36:00,
2013-07-23 20:41:00,93.9,29.0,29.99,South,183,5.0,0.0,10,0.00,,,0.00,2,WeatherHawk,2013-07-24 01:41:00,
2013-07-23 20:46:00,93.5,26.2,30.00,SSE,162,8.0,0.0,9,0.00,,,0.00,1,WeatherHawk,2013-07-24 01:46:00,
2013-07-23 20:52:00,93.3,26.1,29.99,SW,215,4.0,0.0,9,0.00,,,0.00,0,WeatherHawk,2013-07-24 01:52:00,
2013-07-23 20:57:00,93.3,26.0,29.99,South,184,7.0,0.0,9,0.00,,,0.00,0,WeatherHawk,2013-07-24 01:57:00,
2013-07-23 21:02:00,93.2,26.0,30.00,South,187,8.0,0.0,9,0.00,,,0.00,1,WeatherHawk,2013-07-24 02:02:00,
2013-07-23 21:08:00,92.9,28.3,29.99,SSE,166,6.0,0.0,10,0.00,,,0.00,1,WeatherHawk,2013-07-24 02:08:00,
2013-07-23 21:14:00,92.9,28.3,30.03,SSE,166,6.0,0.0,10,0.00,,,0.00,0,WeatherHawk,2013-07-24 02:14:00,
2013-07-23 21:20:00,92.9,25.7,30.00,SSE,165,7.0,-999.0,9,0.00,,,0.00,1,WeatherHawk,2013-07-24 02:20:00,
2013-07-23 21:25:00,92.6,28.1,30.02,ESE,118,5.0,-999.0,10,0.00,,,0.00,0,WeatherHawk,2013-07-24 02:25:00,
2013-07-23 21:30:00,92.5,28.0,30.02,South,172,2.0,0.0,10,0.00,,,0.00,0,WeatherHawk,2013-07-24 02:30:00,
2013-07-23 21:35:00,92.2,25.2,30.00,SSE,163,2.0,0.0,9,0.00,,,0.00,0,WeatherHawk,2013-07-24 02:35:00,
2013-07-23 21:40:00,92.1,27.7,30.00,SE,138,5.0,-999.0,10,0.00,,,0.00,0,WeatherHawk,2013-07-24 02:40:00,
2013-07-23 21:45:00,92.1,27.7,30.01,South,174,5.0,0.0,10,0.00,,,0.00,0,WeatherHawk,2013-07-24 02:45:00,
2013-07-23 21:50:00,91.9,29.9,30.02,SE,130,5.0,0.0,11,0.00,,,0.00,1,WeatherHawk,2013-07-24 02:50:00,
2013-07-23 21:55:00,91.9,27.5,30.02,SSE,156,7.0,0.0,10,0.00,,,0.00,0,WeatherHawk,2013-07-24 02:55:00,
2013-07-23 22:00:00,91.6,29.7,30.04,SSE,148,6.0,0.0,11,0.00,,,0.00,0,WeatherHawk,2013-07-24 03:00:00,
2013-07-23 22:05:00,91.4,29.5,30.01,South,176,6.0,0.0,11,0.00,,,0.00,0,WeatherHawk,2013-07-24 03:05:00,
2013-07-23 22:10:00,91.0,31.3,30.04,SSE,151,4.0,0.0,12,0.00,,,0.00,0,WeatherHawk,2013-07-24 03:10:00,
2013-07-23 22:15:00,91.3,29.4,30.02,SSE,166,8.0,0.0,11,0.00,,,0.00,1,WeatherHawk,2013-07-24 03:15:00,
2013-07-23 22:20:00,91.0,31.3,30.02,SE,136,5.0,0.0,12,0.00,,,0.00,0,WeatherHawk,2013-07-24 03:20:00,
2013-07-23 22:25:00,90.9,29.1,30.03,SSE,151,5.0,0.0,11,0.00,,,0.00,0,WeatherHawk,2013-07-24 03:25:00,
2013-07-23 22:30:00,90.8,29.1,30.02,SSW,200,5.0,0.0,11,0.00,,,0.00,0,WeatherHawk,2013-07-24 03:30:00,
2013-07-23 22:35:00,90.7,31.1,30.04,South,170,4.0,-999.0,12,0.00,,,0.00,0,WeatherHawk,2013-07-24 03:35:00,
2013-07-23 22:40:00,90.9,29.1,30.04,SSE,165,7.0,0.0,11,0.00,,,0.00,0,WeatherHawk,2013-07-24 03:40:00,
2013-07-23 22:45:00,90.9,31.3,30.04,South,191,5.0,-999.0,12,0.00,,,0.00,0,WeatherHawk,2013-07-24 03:45:00,
2013-07-23 22:50:00,91.0,29.2,30.04,South,187,8.0,0.0,11,0.00,,,0.00,0,WeatherHawk,2013-07-24 03:50:00,
2013-07-23 22:55:00,90.6,31.0,30.02,SW,226,6.0,-999.0,12,0.00,,,0.00,0,WeatherHawk,2013-07-24 03:55:00,
2013-07-23 23:00:00,90.7,31.1,30.04,South,179,11.0,0.0,12,0.00,,,0.00,0,WeatherHawk,2013-07-24 04:00:00,
2013-07-23 23:01:00,90.5,31.0,30.04,South,184,5.0,0.0,12,0.00,,,0.00,0,WeatherHawk,2013-07-24 04:01:00,
2013-07-23 23:02:00,90.1,30.6,30.04,WNW,286,3.0,0.0,12,0.00,,,0.00,0,WeatherHawk,2013-07-24 04:02:00,
2013-07-23 23:03:00,90.6,31.0,30.03,SSW,200,8.0,0.0,12,0.00,,,0.00,0,WeatherHawk,2013-07-24 04:03:00,
2013-07-23 23:04:00,90.3,30.7,30.03,SSE,165,6.0,0.0,12,0.00,,,0.00,0,WeatherHawk,2013-07-24 04:04:00,
2013-07-23 23:10:00,90.4,30.9,30.05,South,181,8.0,0.0,12,0.00,,,0.00,0,WeatherHawk,2013-07-24 04:10:00,
2013-07-23 23:15:00,90.0,32.5,30.04,South,172,5.0,-999.0,13,0.00,,,0.00,0,WeatherHawk,2013-07-24 04:15:00,
2013-07-23 23:20:00,89.8,32.4,30.03,South,181,6.0,0.0,13,0.00,,,0.00,0,WeatherHawk,2013-07-24 04:20:00,
2013-07-23 23:25:00,89.7,32.3,30.03,South,180,5.0,0.0,13,0.00,,,0.00,0,WeatherHawk,2013-07-24 04:25:00,
2013-07-23 23:30:00,89.4,32.0,30.04,South,170,7.0,0.0,13,0.00,,,0.00,0,WeatherHawk,2013-07-24 04:30:00,
2013-07-23 23:35:00,89.5,32.1,30.03,SE,138,7.0,0.0,13,0.00,,,0.00,0,WeatherHawk,2013-07-24 04:35:00,
2013-07-23 23:40:00,89.4,33.9,30.04,SW,216,9.0,0.0,14,0.00,,,0.00,0,WeatherHawk,2013-07-24 04:40:00,
2013-07-23 23:45:00,89.7,34.1,30.04,South,188,8.0,0.0,14,0.00,,,0.00,1,WeatherHawk,2013-07-24 04:45:00,
2013-07-23 23:50:00,89.3,33.8,30.04,SSW,197,5.0,0.0,14,0.00,,,0.00,0,WeatherHawk,2013-07-24 04:50:00,
2013-07-23 23:55:00,88.8,33.4,30.03,SSE,163,3.0,0.0,14,0.00,,,0.00,0,WeatherHawk,2013-07-24 04:55:00,